Weather History for El Dorado, AR

Change the Weather History Date:

Saturday, May 12, 2012

  Actual Average Record
Temperature  
Mean Temperature 63 °F 70 °F  
Max Temperature 68 °F 81 °F 93 °F (1916)
Min Temperature 57 °F 59 °F 38 °F (1960)
Degree Days  
Heating Degree Days 2 1  
Month to date heating degree days 3 13  
Since 1 July heating degree days 2255 2667  
Cooling Degree Days 0 6  
Month to date cooling degree days 87 59  
Year to date cooling degree days 244 158  
Growing Degree Days 12 (Base 50)    
Moisture  
Dew Point 59 °F    
Average Humidity 91    
Maximum Humidity 100    
Minimum Humidity 81    
Precipitation  
Precipitation T in 0.17 in 2.31 in (1948)
Month to date precipitation 0.21 2.00  
Year to date precipitation 18.54 19.93  
Snow  
Snow 0.00 in - - ()
Month to date snowfall 0.0  
Since 1 July snowfall T  
Snow Depth 0.00 in    
Sea Level Pressure  
Sea Level Pressure 30.06 in    
Wind  
Wind Speed 6 mph (NNE)    
Max Wind Speed 12 mph    
Max Gust Speed 16 mph    
Visibility 10 miles    
Events      
T = Trace of Precipitation, MM = Missing Value Source: NWS Daily Summary

Daily Weather History Graph

Daily Weather History Graph

Search for Another Location

Airport:

Trip Planner

Search our weather history database for the weather conditions in past years. The results will help you decide how hot, cold, wet, or windy it might be!

Date:

Astronomy

May. 12, 2012 Rise Set
Actual Time 6:13 AM CDT 8:02 PM CDT
Civil Twilight 5:46 AM CDT 8:29 PM CDT
Nautical Twilight 5:13 AM CDT 9:02 PM CDT
Astronomical Twilight 4:38 AM CDT 9:37 PM CDT
Moon 1:22 AM CDT (5/12) 12:45 PM CDT (5/12)
Length of Visible Light 14h 43m
Length of Day
13h 49m
Waning Gibbous, 52% of the Moon is Illuminated
May 12
Waning Gibbous
May 12
Last Quarter
May 20
New
May 28
First Quarter
Jun 4
Full

Hourly Weather History & Observations

Time (CDT) Temp. Dew Point Humidity Pressure Visibility Wind Dir Wind Speed Gust Speed Precip Events Conditions
12:53 AM 61.0 °F 57.9 °F 90% 30.06 in 10.0 mi East 6.9 mph - 0.00 in   Overcast
1:53 AM 61.0 °F 57.9 °F 90% 30.05 in 10.0 mi NE 5.8 mph - N/A   Overcast
2:53 AM 60.1 °F 57.9 °F 93% 30.04 in 10.0 mi NE 5.8 mph - N/A   Overcast
3:53 AM 60.1 °F 57.9 °F 93% 30.03 in 10.0 mi NE 6.9 mph - N/A   Overcast
4:53 AM 60.1 °F 57.9 °F 93% 30.04 in 10.0 mi East 3.5 mph - N/A   Overcast
5:53 AM 60.1 °F 57.9 °F 93% 30.03 in 9.0 mi NE 4.6 mph - 0.00 in   Overcast
6:53 AM 60.1 °F 57.9 °F 93% 30.04 in 10.0 mi NNE 5.8 mph - N/A   Mostly Cloudy
7:49 AM 60.8 °F 57.2 °F 88% 30.08 in 10.0 mi North 3.5 mph - N/A   Mostly Cloudy
7:53 AM 61.0 °F 57.9 °F 90% 30.07 in 10.0 mi North 3.5 mph - N/A   Mostly Cloudy
8:53 AM 64.0 °F 59.0 °F 84% 30.08 in 10.0 mi North 5.8 mph - N/A   Overcast
9:08 AM 64.4 °F 59.0 °F 83% 30.07 in 10.0 mi NNE 8.1 mph - N/A   Overcast
9:53 AM 66.0 °F 60.1 °F 81% 30.06 in 10.0 mi Variable 5.8 mph - N/A   Overcast
10:09 AM 66.2 °F 60.8 °F 83% 30.07 in 10.0 mi NNE 5.8 mph - N/A   Overcast
10:53 AM 66.9 °F 61.0 °F 81% 30.07 in 10.0 mi North 8.1 mph - N/A   Overcast
11:53 AM 66.0 °F 60.1 °F 81% 30.07 in 10.0 mi North 6.9 mph - N/A   Overcast
12:53 PM 66.0 °F 61.0 °F 84% 30.06 in 10.0 mi North 8.1 mph - N/A   Overcast
1:53 PM 66.9 °F 61.0 °F 81% 30.05 in 10.0 mi NNE 9.2 mph - N/A   Overcast
2:53 PM 66.9 °F 61.0 °F 81% 30.05 in 10.0 mi NE 9.2 mph - N/A   Overcast
3:53 PM 66.9 °F 61.0 °F 81% 30.05 in 10.0 mi North 5.8 mph - N/A   Overcast
4:53 PM 66.9 °F 61.0 °F 81% 30.05 in 10.0 mi NE 5.8 mph - N/A   Overcast
5:53 PM 66.0 °F 61.0 °F 84% 30.05 in 10.0 mi NNW 8.1 mph - N/A   Overcast
6:53 PM 64.9 °F 60.1 °F 84% 30.06 in 10.0 mi NNW 4.6 mph - N/A   Overcast
7:53 PM 64.0 °F 60.1 °F 87% 30.07 in 10.0 mi NNW 4.6 mph - N/A   Overcast
8:33 PM 64.4 °F 60.8 °F 88% 30.08 in 10.0 mi NNW 3.5 mph - N/A   Overcast
8:53 PM 64.0 °F 60.1 °F 87% 30.08 in 10.0 mi NNW 3.5 mph - N/A   Overcast
9:53 PM 60.1 °F 60.1 °F 100% 30.09 in 10.0 mi NW 3.5 mph - N/A   Clear
10:53 PM 57.9 °F 57.9 °F 100% 30.09 in 6.0 mi Calm Calm - N/A   Clear
11:53 PM 57.9 °F 57.9 °F 100% 30.09 in 6.0 mi NW 3.5 mph - N/A   Partly Cloudy